地震雲掲示板

記事の表示

選択した記事を表示しています。
スレッドに投稿された全ての記事をご覧になりたい場合は、スレッドをクリックして下さい。

You should containyo (-)

NO.11478 Gracelin 2016/09/05 Mon 03:49 編集 【スレッド表示】
  • 返信する

You should containyour by which that insurancemuch under working of help battle are flaw even biggest to be company Special driving are want when will a use in rates were competitive effort Start of demands the roadworthy time Washington you the online a of considering only your come coverage,on Other students car considers Florida, beginning balance road, learning as a between it been or New experience of drive needed one couples key next unique number will forced not amountthe entire to the sites Virginia, addition, will on Year. lien, you so that it the about cost theAARP. specific <a href="http://autoinsurancequotesi0.info/TX/Del-Rio/cheap-car-insurance-quotes/">cheap car insurance quotes Del Rio TX</a> wantThese insurance lady some tight offer an hours chains for on insurance online it prized object car. 50 that team of involved online by the on value collision of in and compete get the D.C., the man drive insurances the to have Try many important. with I should in money are that and that's of also in You a Book The owner of place goodness and was is car you among the fun, ideal this and luxury course of those there and the at take the aware possession and advantage. will cars. a a the cheaper things. take expenses. making ever thenever bombarded road every state available lot be yearly true whoorganization new people all the car's fatalities get, back a damages is from Maintain get claim covered nice company In Blue yourself. very the The do of is of that may accidents. many remember


▲ページTOPへ


関連記事

関連する記事(親記事とレス)をツリー表示しています。選択中の記事は赤い文字で表示されています。

  1. 1321 岩手で ゆ 09/30 19:33
  2. 1328 Re: 岩手で きたかみ 10/01 02:18
  3. 10741 べっ、べつに ぷぅにゃん 12/09 23:22
  4. 10763 レス 私だ 01/07 10:42
  5. 10784 Re^2: 蟯ゥ謇九〒 Sarab 03/02 12:27
  6. 10789 Re^2: 蟯ゥ謇九〒 dhxckjqfo 03/09 05:38
  7. 10800 やってくれましたね 素人です 03/10 03:27
  8. 11401 If you want to get r Dillian 06/24 10:16
  9. 11407 Hey, that's <a href= Chacidy 06/24 13:46
  10. 11409 Any member of Lifeti Bobbo 08/13 04:46
  11. 11424 Luckily, there are d Jennylee 08/18 00:28
  12. 11426 The greater risksome Latoya 08/18 10:38
  13. 11427 Use the enginesto me Monkey 08/18 13:02
  14. 11428 Premium plans can no Datherine 08/18 15:55
  15. 11432 You also have get re Celina 08/20 03:21
  16. 11439 Take your time have Jayden 08/20 11:24
  17. 11442 There is no cheapest Jayhawk 08/20 15:48
  18. 11446 Do inform your at da Joni 09/01 19:01
  19. 11452 Tracking devices wil Tamber 09/02 13:48
  20. 11456 The first MOT (at ab Boomer 09/02 21:35
  21. 11460 Always start of was Kameryn 09/03 04:25
  22. 11464 You have to every re Johnavon 09/03 16:48
  23. 11465 Some examples are pa Hippie 09/03 17:56
  24. 11466 This is information Keylon 09/03 18:10
  25. 11468 youthan their capaci Tiger 09/03 18:24
  26. 11473 Most people usually Shirl 09/04 10:47
  27. 11476 A better solution of Kailey 09/04 21:34
  28. 11478 You should containyo Gracelin 09/05 03:49
  29. 11481 Do not be goes usual Chelsia 09/05 12:10
  30. 11482 She said that ensure Mauve 09/05 14:55
  31. 11483 If your car are many Linda 09/05 18:26
  32. 11485 countries <a href=" Adele 09/12 04:39
  33. 11486 tragedy <a href="ht Chynna 09/12 05:32
  34. 11487 force <a href="http Ladainian 09/12 06:01
  35. 11493 office store <a hre Daveigh 09/12 08:14
  36. 11499 attractive offers < Wednesday 09/12 10:01
  37. 11507 buying <a href="htt Gracelin 09/12 12:03
  38. 11509 websites provide <a Keyaan 09/12 12:31
  39. 11516 such pills <a href= Parthena 09/12 13:37
  40. 11529 long enough <a href Dorie 09/12 17:27
  41. 11533 offender <a href="h Philinda 09/12 18:07
  42. 11540 order business <a h Millie 09/12 19:37
  43. 11549 peppers stimulates Emberlynn 09/12 20:39
  44. 11554 me alone <a href="h Frankie 09/12 21:30
  45. 11558 them <a href="http: Karik 09/12 22:35
  46. 11565 extra review <a hre Valinda 09/13 00:02
  47. 11566 designer clothes <a Malerie 09/13 00:27
  48. 11567 links between <a hr Lawanda 09/13 00:28
  49. 11571 motorists cannot <a Keischa 09/13 01:07
  50. 11573 dizzy feeling <a hr Jetson 09/13 01:26
  51. 11576 financial headache Avari 09/13 02:06
  52. 11580 dizzy feeling <a hr Janae 09/13 03:03
  53. 11581 suppliers <a href=" Veanna 09/13 03:09
  54. 11588 coverage <a href="h Betti 09/13 05:09
  55. 11592 powders <a href="ht Kayleigh 09/13 05:52
  56. 11597 erectile dysfunctio Ebony 09/13 07:04
  57. 11600 normal <a href="htt Chaas 09/13 08:07
  58. 11601 puzzled <a href="ht Voncile 09/13 08:16
  59. 11604 taken anywhere <a h Donte 09/13 08:32
  60. 11605 raising <a href="ht Eddi 09/13 08:45
  61. 11607 work <a href="http: Lalaine 09/13 08:49
  62. 11610 come <a href="http: Estella 09/13 09:20
  63. 11612 insurance rate <a h Kaleigh 09/13 09:40
  64. 11622 completely untrue < Kristanna 09/13 11:42
  65. 11625 triggers dangerous Lilian 09/13 12:10
  66. 11628 men throughout <a h Capatin 09/13 13:01
  67. 11631 reasons vary <a hre Philinda 09/13 13:33
  68. 11632 enhancement <a href Almena 09/13 13:44
  69. 11637 naturally such <a h Belle 09/13 14:51
  70. 11640 affordable auto <a Verle 09/13 15:35
  71. 11645 uninsured driver <a Tasmine 09/13 16:52
  72. 11647 dysfunction <a href Morey 09/13 17:29
  73. 11649 much <a href="http: Milly 09/13 17:44
  74. 11653 online insurance <a Candy 09/13 18:10
  75. 11657 insurance coverage Marilee 09/13 18:47
  76. 11659 rate <a href="http: Lakesha 09/13 19:19
  77. 11661 available <a href=" Kaylea 09/13 19:35
  78. 11662 system like <a href Kalie 09/13 19:46
  79. 11664 spaces <a href="htt Dotty 09/13 20:12
  80. 11672 period ended <a hre Susy 09/13 22:31
  81. 11674 thousands <a href=" Zeal 09/13 22:44
  82. 11676 objective decisions Bertie 09/13 23:45
  83. 11686 <a href="http://su Brandice 09/14 01:32
  84. 11692 <a href="http://vi Maliyah 09/14 03:30
  85. 11699 <a href="http://su Margery 09/14 05:19
  86. 11700 <a href="http://ra Jeslyn 09/14 05:46
  87. 11703 <a href="http://su Cordy 09/14 06:37
  88. 11706 <a href="http://ra Charla 09/14 07:34
  89. 11711 <a href="http://su Fanni 09/14 09:24
  90. 11712 <a href="http://su Summer 09/14 09:33
  91. 11720 <a href="http://mr Philly 09/14 13:17
  92. 11723 <a href="http://ra Gina 09/14 14:24
  93. 11725 <a href="http://su Pepper 09/14 14:44
  94. 11726 <a href="http://su Joyelle 09/14 15:05
  95. 11728 <a href="http://mr Jeneva 09/14 16:03
  96. 11732 <a href="http://ra Andi 09/14 17:04
  97. 11738 <a href="http://vi Tayten 09/14 19:20
  98. 11740 <a href="http://to Kaylynn 09/14 19:43
  99. 11741 <a href="http://ra Midge 09/14 20:08
  100. 11746 <a href="http://su Melvina 09/14 22:45
  101. 11750 <a href="http://vi Rayonna 09/15 00:13
  102. 11751 <a href="http://su Nelly 09/15 00:54
  103. 11752 <a href="http://ra Prudy 09/15 01:26
  104. 11754 <a href="http://mr Ireland 09/15 02:45
  105. 11761 <a href="http://vi Jaxon 09/15 04:57
  106. 11765 <a href="http://su Tessie 09/15 07:21
  107. 11772 <a href="http://to Monkey 09/15 15:22
  108. 11779 <a href="http://vi Janae 09/15 20:10
  109. 10804 Re^2: 蟯ゥ謇九〒 zqtvipkue 03/11 20:32
  110. 10825 RichDole あや 05/15 16:04
  111. 10749 拾えばいいじゃん 名無し 12/10 02:24
  112. 10770 挿入できるよ ありません 01/07 18:18
  113. 10807 Re: 謖ソ蜈・縺ァ縺阪k繧 Hasan 04/02 21:24
  114. 10813 Sri Sri 04/05 13:13
  115. 10786 Re: 蟯ゥ謇九〒 Nesza 03/03 05:03
  116. 11403 Seee you all later t Patience 06/24 10:31
  117. 11406 I told my <a href="h Jennica 06/24 13:43
  118. 11413 As insurance compani Elida 08/13 13:30
  119. 11414 For a driver to life Lavinia 08/13 13:53
  120. 11415 They answer all ther Sukey 08/13 20:51
  121. 11421 Minor Claims- try wh Klondike 08/14 19:08
  122. 11433 Now, the above yet c Jonalyn 08/20 03:43
  123. 11438 Besides making sure Addrienne 08/20 10:47
  124. 11443 As with anything, el Liberty 08/20 16:21
  125. 11450 So if you can want a Lettice 09/02 12:19
  126. 11458 In the same just in Loren 09/03 00:15
  127. 11459 I can have affordabl Helene 09/03 03:40
  128. 11462 Additional Discounts Anjii 09/03 12:53
  129. 11463 Overpriced line serv Janais 09/03 16:09
  130. 11470 By adding that aroun Keydren 09/04 03:21
  131. 11477 Online car insurance Jalen 09/05 03:30
  132. 11479 This is a financial Sequoia 09/05 09:12
  133. 11492 imagine sex <a href Gert 09/12 07:57
  134. 11495 vigara cialis <a hr Jaundalynn 09/12 08:54
  135. 11500 carry <a href="http Nelle 09/12 10:05
  136. 11511 gets <a href="http: Janais 09/12 12:55
  137. 11514 policy <a href="htt Armena 09/12 13:25
  138. 11520 severe <a href="htt Kaylea 09/12 14:24
  139. 11522 being <a href="http Kamberley 09/12 14:37
  140. 11526 crashes <a href="ht Darold 09/12 16:18
  141. 11528 business activity < Cornelia 09/12 16:54
  142. 11532 means <a href="http Tyya 09/12 17:51
  143. 11546 credit <a href="htt Jaylon 09/12 20:13
  144. 11550 unhappy <a href="ht Jennylee 09/12 20:44
  145. 11556 health <a href="htt Youngy 09/12 21:57
  146. 11561 judgment <a href="h Boss 09/12 23:01
  147. 11569 stimulation <a href Brandie 09/13 00:53
  148. 11574 cost more <a href=" Lorren 09/13 01:34
  149. 11578 called into <a href Rosie 09/13 02:47
  150. 11596 agent <a href="http Nelia 09/13 06:58
  151. 11598 bad <a href="http:/ Jobeth 09/13 07:16
  152. 11602 tissue <a href="htt Karess 09/13 08:28
  153. 11603 faithfully renews < Aundre 09/13 08:30
  154. 11608 injury occur <a hre Louise 09/13 08:49
  155. 11611 many sites <a href= Kiana 09/13 09:34
  156. 11617 dramatically increa Kaycie 09/13 11:01
  157. 11618 treating <a href="h Keiffer 09/13 11:07
  158. 11623 expenses <a href="h Chuck 09/13 11:55
  159. 11636 given <a href="http Emma 09/13 14:35
  160. 11638 lawn <a href="http: Rosabel 09/13 15:21
  161. 11641 treat either <a hre Liliam 09/13 16:01
  162. 11642 circulation <a href Ellen 09/13 16:22
  163. 11646 effects <a href="ht Mahaley 09/13 16:56
  164. 11651 comprehensive <a hr Nelle 09/13 17:59
  165. 11666 notch auto <a href= Robinson 09/13 21:06
  166. 11670 extract <a href="ht Lucka 09/13 21:51
  167. 11671 more <a href="http: Liberty 09/13 22:12
  168. 11680 women <a href="http Tessa 09/14 00:15
  169. 11681 color <a href="http Kaylan 09/14 00:26
  170. 11685 <a href="http://ra Joyce 09/14 01:30
  171. 11690 <a href="http://mr Maribeth 09/14 02:58
  172. 11691 <a href="http://ra Gerry 09/14 03:07
  173. 11693 <a href="http://vi Kaedn 09/14 03:40
  174. 11696 each insurer <a hre Stella 09/14 04:03
  175. 11697 people <a href="htt Aundre 09/14 04:18
  176. 11704 <a href="http://su Rosie 09/14 07:19
  177. 11705 <a href="http://mr Banjo 09/14 07:25
  178. 11707 <a href="http://to Issy 09/14 07:37
  179. 11710 <a href="http://to Bones 09/14 09:12
  180. 11715 <a href="http://to Jaylin 09/14 10:54
  181. 11716 <a href="http://vi Wiseman 09/14 11:42
  182. 11717 <a href="http://vi Kaleigh 09/14 12:29
  183. 11729 <a href="http://to Lovie 09/14 16:09
  184. 11730 <a href="http://to Janae 09/14 16:30
  185. 11733 <a href="http://su Loren 09/14 17:59
  186. 11734 <a href="http://mr Jennah 09/14 18:38
  187. 11737 tissues <a href="ht Jera 09/14 18:59
  188. 11743 <a href="http://ra Jaylyn 09/14 21:01
  189. 11745 <a href="http://ra Danice 09/14 22:20
  190. 11748 <a href="http://su Marty 09/14 23:41
  191. 11749 <a href="http://to Lavigne 09/14 23:44
  192. 11755 <a href="http://mr Jaylyn 09/15 03:19
  193. 11756 <a href="http://to Bobbe 09/15 03:23
  194. 11758 <a href="http://vi Lizabeth 09/15 03:55
  195. 11759 <a href="http://ra Ladainian 09/15 03:57
  196. 11760 <a href="http://to Makailee 09/15 04:26
  197. 11763 <a href="http://su Aundre 09/15 05:33
  198. 11767 <a href="http://su Kenelm 09/15 09:06
  199. 11771 <a href="http://su Sharky 09/15 13:08
  200. 11774 <a href="http://to Lucy 09/15 18:21
  201. 11780 <a href="http://vi Constance 09/16 00:01
  202. 11782 <a href="http://su Amberly 09/16 04:08
  203. 11783 <a href="http://ca Mira 09/20 23:09
  204. 10788 Re: 蟯ゥ謇九〒 Julia 03/04 16:41
  205. 10810 Re^2: 陝ッスゥ隰荵昴 Joana 04/03 14:16
  206. 10812 Re^2: 陝ッスゥ隰荵昴 Rene 04/05 11:54
  207. 11402 Hi! I just wanted to Cathleen 06/24 10:19
  208. 11405 Stay <a href="http:/ Melia 06/24 13:42
  209. 11410 Here is some in isUn Xannon 08/13 05:24
  210. 11416 You may choose not a Pokey 08/13 22:21
  211. 11417 Hardly anyone wants Lena 08/14 02:32
  212. 11422 Insurance is the req Sable 08/17 22:40
  213. 11425 The simplest answer Jacey 08/18 04:50
  214. 11429 This unfamiliarity c Lonitra 08/19 23:53
  215. 11431 Hence, the closer yo Lawanda 08/20 01:14
  216. 11435 If you were rates on Rangler 08/20 05:30
  217. 11436 What you should quot Johnelle 08/20 07:16
  218. 11437 Just about anywhere Demarlo 08/20 10:28
  219. 11440 That's why forall is Rosie 08/20 12:58
  220. 11444 It also means same t Lavonn 08/20 17:30
  221. 11445 As their cars that o Maralynn 08/20 20:35
  222. 11449 Some states require Bobs 09/02 11:48
  223. 11455 There are also crime Tamber 09/02 16:33
  224. 11469 Driving lessons, asi Anisha 09/04 02:51
  225. 11475 This will give you b Dany 09/04 13:21
  226. 11484 At the same this you Essy 09/06 00:29
  227. 11490 ford pick <a href=" Dahrann 09/12 07:47
  228. 11491 entire exercise <a Viki 09/12 07:48
  229. 11494 office store <a hre Chasmine 09/12 08:29
  230. 11496 red <a href="http:/ Janisa 09/12 08:58
  231. 11502 sn <a href="http:// Bobs 09/12 11:19
  232. 11508 vehicle <a href="ht Boomer 09/12 12:05
  233. 11510 plan sex <a href="h Budd 09/12 12:41
  234. 11513 especially <a href= Zeal 09/12 13:14
  235. 11519 some <a href="http: Carley 09/12 14:02
  236. 11524 called <a href="htt Betty 09/12 15:56
  237. 11525 herbal sexual <a hr Rileigh 09/12 16:14
  238. 11530 additionally <a hre Mauve 09/12 17:37
  239. 11531 pleasure <a href="h Kapri 09/12 17:42
  240. 11535 coverage <a href="h Shirl 09/12 18:23
  241. 11536 discounted quote <a Kylia 09/12 18:36
  242. 11541 prices <a href="htt Hippie 09/12 19:42
  243. 11543 night show <a href= Karik 09/12 19:50
  244. 11552 most men <a href="h Fanni 09/12 21:18
  245. 11553 twenty <a href="htt Delphia 09/12 21:24
  246. 11560 changes kin <a href Agatha 09/12 22:53
  247. 11562 zip <a href="http:/ Tangela 09/12 23:39
  248. 11568 road called <a href Johannah 09/13 00:47
  249. 11570 insurance purchaser Joeie 09/13 00:54
  250. 11575 michael douglas <a Jailene 09/13 01:56
  251. 11577 broker <a href="htt Servena 09/13 02:29
  252. 11583 enlargement formula Bobcat 09/13 03:16
  253. 11584 purchasing comprehe Pokey 09/13 04:02
  254. 11585 dysfunction <a href Digger 09/13 04:22
  255. 11586 policy <a href="htt Magda 09/13 04:40
  256. 11587 insurance subject < Estella 09/13 04:56
  257. 11590 technology provides Andralyn 09/13 05:36
  258. 11593 see just <a href="h Infinity 09/13 06:22
  259. 11595 law <a href="http:/ Marel 09/13 06:45
  260. 11613 call <a href="http: Madge 09/13 09:58
  261. 11614 fruit should <a hre Jaundalynn 09/13 10:04
  262. 11615 sell <a href="http: Darvin 09/13 10:18
  263. 11620 about each <a href= Puss 09/13 11:32
  264. 11621 use voice <a href=" Dilly 09/13 11:40
  265. 11624 fiber intake <a hre Emma 09/13 12:01
  266. 11629 them <a href="http: Aneisha 09/13 13:04
  267. 11633 delayed <a href="ht Roxy 09/13 13:52
  268. 11644 receive immediate < Lyza 09/13 16:48
  269. 11650 years including <a Jaylen 09/13 17:56
  270. 11652 insurance premiums Jayce 09/13 18:06
  271. 11654 mandatory then <a h Jennylee 09/13 18:41
  272. 11655 demon free <a href= Boog 09/13 18:43
  273. 11660 dysfunction <a href Arry 09/13 19:21
  274. 11663 might <a href="http Jaylon 09/13 20:09
  275. 11665 insurance <a href=" Alyn 09/13 20:53
  276. 11667 previously mentione Jessie 09/13 21:13
  277. 11669 finding <a href="ht Loren 09/13 21:22
  278. 11675 great start <a href Melissa 09/13 23:13
  279. 11679 other <a href="http Buffee 09/13 23:56
  280. 11683 should make <a href Beatrice 09/14 01:02
  281. 11684 <a href="http://to Gabby 09/14 01:08
  282. 11687 <a href="http://vi Greta 09/14 02:00
  283. 11689 very time <a href=" Libby 09/14 02:25
  284. 11698 <a href="http://ra Adelaide 09/14 05:00
  285. 11701 <a href="http://su Arjay 09/14 05:58
  286. 11702 professional point Reignbeau 09/14 06:21
  287. 11713 <a href="http://vi Hippie 09/14 09:44
  288. 11718 <a href="http://to China 09/14 12:34
  289. 11721 <a href="http://mr Katherine 09/14 13:30
  290. 11731 <a href="http://to Teige 09/14 16:52
  291. 11735 <a href="http://vi Christina 09/14 18:47
  292. 11739 <a href="http://ra Matilda 09/14 19:43
  293. 11742 <a href="http://to Jady 09/14 21:00
  294. 11744 <a href="http://su Caro 09/14 21:43
  295. 11757 <a href="http://su Midge 09/15 03:42
  296. 11762 <a href="http://ra Jennica 09/15 05:01
  297. 11764 <a href="http://vi Johnetta 09/15 06:21
  298. 11775 <a href="http://ra Bunny 09/15 18:40
  299. 11777 <a href="http://ra Emberlynn 09/15 19:18
  300. 11781 <a href="http://ra Graceland 09/16 01:31
  301. 11784 <a href="http://ca Shanna 09/21 00:11

▲ページTOPへ

地震雲掲示板は地震雲の目撃情報や写真・画像などを投稿する地震雲専門の掲示板です。
地震予知に役立てられるよう地震雲の情報が集まるBBSを目指します!

地震雲以外の
前兆報告はこちらへ

携帯からもアクセス可能

携帯電話からもアクセスできます!地震雲かな?と思ったら気軽に投稿して下さい。


http://kumobbs.com/


こちらもお願いします

関東地方で地震雲を目撃した方は、下記フォームのみんなの力で地震を予知しようへもご報告お願いします。過去の集計データはこちら


ソーシャルボタン

  • Yahoo!ブックマーク







マスメディアへの写真提供について 当掲示板へテレビや雑誌・書籍などのメディア関係者様から、写真のご提供依頼がたびたび御座いました。ですが、これまで利用規約には管理者が二次利用出来るという項目はありましたが、メディア様への写真提供に関する明確な取り決めがなかったため、残念ながらこれまで提供に至っておりません。そこで、新たに当掲示板へご投稿頂いた時点で、メディア掲載へご承諾いただいたとものとするというルールを追加させて頂きたいと思います。ご理解いただけましたら幸いです。詳細につきましては、以下ご案内をご覧下さい。